{"data":{"norad_id":53192,"intl_designator":"2022-084D","name":"STARLINK-4375","alt_names":[],"object_type":"PAYLOAD","status":"ACTIVE","operator":null,"country":"US","launch_date":"2022-07-22","launch_site_code":"AFWTR","launch_vehicle":null,"mission":null,"orbit_class":"UNKNOWN","rcs_meters":null,"size_class":null,"mass_kg":null,"dimensions":null,"purposes":["comms"],"wikipedia_slug":null,"has_3d_model":false,"image_url":null,"decayed_at":null,"tle_current":{"epoch":"2026-09-19T22:11:17.206944Z","epoch_age_seconds":121941,"freshness":"FRESH","line1":"1 53192U 22084D   26262.92450471  .00006472  00000+0  20264-3 0  9991","line2":"2 53192  97.2846 318.5811 0001315  77.2377 282.9013 15.33439975229320","mean_motion":15.33439975,"eccentricity":0.0001315,"inclination_deg":97.2846,"raan_deg":318.5811,"arg_perigee_deg":77.2377,"mean_anomaly_deg":282.9013,"bstar":0.00020264,"rev_number":22932,"period_min":93.906512382397,"perigee_km":464.65817947458,"apogee_km":466.45807129256,"semimajor_km":6843.6951253836,"source":"CELESTRAK","updated_at":"2026-09-20T09:00:40.189485Z"}}}